Weather History for Monticello, AR

Change the Weather History Date:

Sunday, October 14, 2012

  Actual Average Record
Temperature  
Mean Temperature 72 °F -  
Max Temperature 81 °F 75 °F 94 °F (1963)
Min Temperature 63 °F 49 °F 32 °F (1987)
Cooling Degree Days 6    
Growing Degree Days 22 (Base 50)    
Moisture  
Dew Point 65 °F    
Average Humidity 84    
Maximum Humidity 94    
Minimum Humidity 66    
Precipitation  
Precipitation 0.14 in - - ()
Sea Level Pressure  
Sea Level Pressure 29.98 in    
Wind  
Wind Speed 10 mph (SW)    
Max Wind Speed 17 mph    
Max Gust Speed 28 mph    
Visibility 8 miles    
Events Rain , Thunderstorm    
Averages and records for this station are not official NWS values.
T = Trace of Precipitation, MM = Missing Value Source: NWS Daily Summary

Daily Weather History Graph

Daily Weather History Graph

Search for Another Location

Airport:

Trip Planner

Search our weather history database for the weather conditions in past years. The results will help you decide how hot, cold, wet, or windy it might be!

Date:

Astronomy

Oct. 14, 2012 Rise Set
Actual Time 7:11 AM CDT 6:33 PM CDT
Civil Twilight 6:46 AM CDT 6:58 PM CDT
Nautical Twilight 6:17 AM CDT 7:27 PM CDT
Astronomical Twilight 5:48 AM CDT 7:56 PM CDT
Moon 6:11 AM CDT (10/14) 5:54 PM CDT (10/14)
Length of Visible Light 12h 12m
Length of Day
11h 22m
Waning Crescent, 1% of the Moon is Illuminated
Oct 14
Waning Crescent
Oct 15
New
Oct 21
First Quarter
Oct 29
Full
Nov 6
Last Quarter

Hourly Weather History & Observations

Time (CDT) Temp. Heat Index Dew Point Humidity Pressure Visibility Wind Dir Wind Speed Gust Speed Precip Events Conditions
12:53 AM 73.0 °F - 64.9 °F 76% 29.94 in 10.0 mi South 10.4 mph 20.7 mph N/A   Clear
1:53 AM 73.0 °F - 64.9 °F 76% 29.95 in 10.0 mi South 10.4 mph 17.3 mph N/A   Clear
2:51 AM 71.6 °F - 66.2 °F 83% 29.96 in 10.0 mi South 8.1 mph - N/A   Mostly Cloudy
2:53 AM 72.0 °F - 66.0 °F 81% 29.95 in 10.0 mi South 8.1 mph - N/A   Mostly Cloudy
3:53 AM 73.0 °F - 66.9 °F 81% 29.92 in 10.0 mi South 12.7 mph 21.9 mph N/A   Mostly Cloudy
4:53 AM 71.1 °F - 69.1 °F 93% 30.02 in 3.0 mi WNW 10.4 mph - 0.01 in Rain Heavy Rain
4:56 AM 71.6 °F - 69.8 °F 94% 30.02 in 1.5 mi NW 13.8 mph 19.6 mph 0.00 in Rain Rain
5:12 AM 66.2 °F - 62.6 °F 88% 30.02 in 3.0 mi West 13.8 mph 21.9 mph N/A Rain Rain
5:18 AM 66.2 °F - 62.6 °F 88% 30.02 in 3.0 mi WSW 9.2 mph 20.7 mph N/A Rain , Thunderstorm Heavy Rain
5:34 AM 66.2 °F - 62.6 °F 88% 30.03 in 5.0 mi SW 9.2 mph - N/A Rain Rain
5:53 AM 66.0 °F - 64.0 °F 93% 30.04 in 4.0 mi SSW 11.5 mph - N/A Rain Heavy Rain
6:17 AM 66.2 °F - 62.6 °F 88% 30.05 in 2.0 mi SW 15.0 mph 21.9 mph N/A Rain Heavy Rain
6:31 AM 66.2 °F - 62.6 °F 88% 30.05 in 4.0 mi SSW 17.3 mph 27.6 mph N/A Rain Heavy Rain
6:53 AM 66.0 °F - 63.0 °F 90% 30.04 in 5.0 mi SSW 11.5 mph 20.7 mph N/A Rain Rain
7:53 AM 66.0 °F - 63.0 °F 90% 30.00 in 7.0 mi South 10.4 mph - N/A Rain Rain
8:53 AM 66.0 °F - 63.0 °F 90% 30.00 in 10.0 mi South 11.5 mph 24.2 mph N/A Rain Light Rain
9:53 AM 66.9 °F - 64.9 °F 93% 30.02 in 10.0 mi South 11.5 mph 18.4 mph N/A   Overcast
10:53 AM 68.0 °F - 64.9 °F 90% 30.02 in 10.0 mi SSW 10.4 mph 23.0 mph 0.01 in   Overcast
11:53 AM 71.1 °F - 66.9 °F 87% 30.01 in 10.0 mi SSW 10.4 mph 18.4 mph 0.01 in   Mostly Cloudy
12:53 PM 73.9 °F - 66.9 °F 79% 29.97 in 10.0 mi SSW 11.5 mph 18.4 mph 0.01 in   Overcast
1:18 PM 75.2 °F - 68.0 °F 78% 29.97 in 10.0 mi SSW 10.4 mph 21.9 mph 0.01 in   Overcast
1:53 PM 75.0 °F - 69.1 °F 82% 29.94 in 10.0 mi SSW 11.5 mph 17.3 mph 0.01 in   Overcast
2:53 PM 78.1 °F - 70.0 °F 76% 29.92 in 10.0 mi SW 10.4 mph - 0.01 in   Overcast
3:30 PM 78.8 °F - 69.8 °F 74% 29.93 in 10.0 mi West 5.8 mph - 0.01 in   Mostly Cloudy
3:53 PM 79.0 °F - 69.1 °F 72% 29.92 in 10.0 mi West 6.9 mph - 0.01 in   Partly Cloudy
4:53 PM 80.1 °F 82.7 °F 68.0 °F 67% 29.92 in 10.0 mi West 6.9 mph - 0.01 in   Partly Cloudy
5:53 PM 77.0 °F - 64.9 °F 66% 29.94 in 10.0 mi WNW 6.9 mph - 0.02 in   Clear
6:53 PM 71.1 °F - 64.9 °F 81% 29.94 in 10.0 mi Calm Calm - 0.01 in   Clear
7:53 PM 66.9 °F - 64.9 °F 93% 29.96 in 10.0 mi Calm Calm - N/A   Clear
8:53 PM 66.0 °F - 64.0 °F 93% 29.98 in 8.0 mi Calm Calm - 0.01 in   Clear
9:53 PM 64.0 °F - 62.1 °F 93% 30.00 in 10.0 mi Calm Calm - 0.01 in   Clear
10:53 PM 63.0 °F - 61.0 °F 93% 30.01 in 10.0 mi WNW 3.5 mph - 0.00 in Rain Light Rain
11:53 PM 63.0 °F - 57.9 °F 84% 30.01 in 10.0 mi Calm Calm - 0.01 in   Clear